Weather in Luga

Russia / Novgorod Oblast     58°55′43″N   32°05′46″E
temp.,
°C
wind,
m/s
gust,
m/s
humid.,
%
clouds,
%
prec.,
mm/h
press.,
hPa
HPBL,
m
3 august, tue
tue300:00+18ssw4898100 2.4 991561
03:00+14wsw71496100 3.3 995986
06:00+13sw6149485 0.0 999858
09:00+15sw61181100 0.1 1001827
12:00+20sw7105190 0.1 10021969
15:00+20sw5105694 0.2 10031813
18:00+18wsw510720 1.0 10041355
21:00+14w39965 2.9 1006337
4 august, wed
wed400:00+12wsw399810 0.3 1009320
03:00+10wsw289812 0.3 1011178
06:00+9sw26965 0.0 1012134
09:00+14wsw34793 0.0 1014403
12:00+19w35496 0.1 10141797
15:00+19w2444100 0.1 10141348
18:00+16e1165100 0.0 101522
21:00+15s116579 0.0 101611
5 august, thu
thu500:00+11wsw117813 0.0 101712
03:00+10ne01825 0.0 101810
06:00+10e00814 0.0 101810
09:00+17ene1157100 0.0 1018322
12:00+21ene1140100 0.0 10171369
15:00+22ne223398 0.0 10162368
18:00+21nne244299 0.0 1016533
21:00+15s387399 0.0 1016284
6 august, fri
fri600:00+12e1194100 0.1 101616
03:00+11e23965 0.1 101653
06:00+12ene3129195 0.0 1016535
09:00+15ene51271100 0.0 1014848
12:00+16e51166100 0.0 1014996
15:00+17e51260100 0.0 1014889
18:00+20e51053100 0.0 10121641
21:00+17e51361100 0.0 10121128
7 august, sat
sat700:00+15ene51368100 0.0 1011900
03:00+14ene61379100 0.0 1011812
06:00+13ene61496100 5.9 1009718
09:00+13e51497100 13.8 1009802
12:00+14e41197100 1.1 1010659
15:00+15e41097100 1.5 1010538
18:00+15ese41097100 0.8 1009553
21:00+15e3999100 3.1 1009440